Regional Weather Roundup
Issued by NWS Sterling, VA

Home | Current Version | Previous Version | Text Only | Print | Product List | Glossary Off
Versions: 1 2 3 4 5 6 7 8 9 10 11 12 13 14 15 16 17 18 19 20 21 22 23 24 25 26 27 28 29 30 31 32 33 34 35 36 37 38 39 40 41 42 43 44 45 46 47 48 49 50

000
ASUS41 KLWX 070410
RWRLWX

REGIONAL WEATHER ROUNDUP
NATIONAL WEATHER SERVICE BALTIMORE MD/WASHINGTON DC
1200 AM EDT TUE JUL 07 2015

Note: "FAIR" indicates few or no clouds below 12,000 feet
with no significant weather and/or obstructions to visibility.
 TC=TEMPERATURE CELSIUS

 * =Non NWS site. Station does not report precipitation (e.g. rain,
    snow, etc.), thunder, or fog.

DCZ001-MDZ009-015-VAZ040>042-051-053>054-070500-
WASHINGTON METRO

CITY           SKY/WX    TMP DP  RH WIND       PRES   REMARKS
WASHINGTON NAT MOCLDY    78  71  79 S9        30.04R
DULLES         PTCLDY    72  71  97 S5        30.03S
ANDREWS AFB    CLEAR     73  72  99 S7        30.04R
FT BELVOIR     PTCLDY    74  71  92 SE2       30.04R
QUANTICO       PTCLDY    77  73  88 SW8       30.00S
COLLEGE PARK*  PTCLDY    72  72 100 CALM      30.03S
LEESBURG*      CLEAR     73  73 100 SW9       30.04S
MANASSAS*      CLEAR     73  72  94 S3          N/A
GAITHERSBURG*  MOCLDY    72  70  94 SE5       30.08R

$$

MDZ006>007-011-014-070500-
BALTIMORE METRO

CITY           SKY/WX    TMP DP  RH WIND       PRES   REMARKS
BWI AIRPORT    PTCLDY    73  71  93 S5        30.03S
MD SCIENCE CTR   N/A     75  73  93 MISG      30.04S
MARTIN STATE   PTCLDY    77  73  88 SE7       30.02F
ANNAPOLIS      PTCLDY    76  70  82 S6        30.03S
FORT MEADE*    MOCLDY    70  68  94 CALM      30.06S

$$

MDZ012-015-019>023-070500-
MARYLAND EASTERN SHORE

CITY           SKY/WX    TMP DP  RH WIND       PRES   REMARKS
OCEAN CITY     CLOUDY    77  75  93 S5        30.08S
SALISBURY      MOCLDY    73  72  96 E5        30.06F
BAY BRIDGE AP*   N/A     77  72  83 S9        30.04S
CAMBRIDGE*     MOCLDY    77  72  83 CALM      30.05S
EASTON*        RAIN     N/A N/A N/A S10       30.08S

$$

MDZ017>025-070500-
SOUTHERN MARYLAND

CITY           SKY/WX    TMP DP  RH WIND       PRES   REMARKS
PATUXENT RIVER MOCLDY    75  71  87 S6        30.04S
ST INIGOES     NOT AVBL
LEONARDTOWN*   CLOUDY    72  70  94 CALM      30.06S

$$

MDZ003>005-070500-
NORTH CENTRAL MARYLAND

CITY           SKY/WX    TMP DP  RH WIND       PRES   REMARKS
FREDERICK*     PTCLDY    72  72 100 CALM      30.05F
HAGERSTOWN APT CLOUDY    74  70  87 CALM      30.03S
WESTMINSTER*   PTCLDY    72  70  94 S3        30.05S

$$

MDZ501>502-070500-
WESTERN MARYLAND

CITY           SKY/WX    TMP DP  RH WIND       PRES   REMARKS
OAKLAND*       MOCLDY    63 N/A N/A CALM      30.14R HAZE
CUMBERLAND*    PTCLDY    72  72 100 CALM      30.08R

$$

VAZ025>031-070500-
SHENANDOAH VALLEY

CITY           SKY/WX    TMP DP  RH WIND       PRES   REMARKS
WINCHESTER*    CLEAR     70  70 100 CALM      30.04R
FRONT ROYAL*   FAIR      70  70 100 CALM      30.03S
LURAY*         FAIR      72  72 100 S3        30.05R
NEW MARKET*    FAIR      69  68  99 CALM      30.04R
STAUNTON*      CLEAR     71  68  90 CALM      30.09S
WAYNESBORO*    FAIR      68  67  97 CALM      30.09S

$$

WVZ021-048>050-054>055-070500-
EASTERN WEST VIRGINIA PANHANDLE

CITY           SKY/WX    TMP DP  RH WIND       PRES   REMARKS
MARTINSBURG    CLEAR     71  68  90 CALM      30.03S
PETERSBURG*    CLOUDY    67  65  93 CALM      30.07R FOG

$$

VAZ036>039-050-070500-
CENTRAL FOOTHILLS

CITY           SKY/WX    TMP DP  RH WIND       PRES   REMARKS
CHARLOTTESVILL CLEAR     72  69  90 S3        30.05R
CULPEPER*      CLEAR     70  70  99 CALM      30.04S FOG
ORANGE*        CLEAR     72  70  94 CALM      30.06S FOG
GORDONSVILLE*  FAIR      70  70 100 CALM      30.05R
WARRENTON*     FAIR      73  72  97 CALM      30.04R

$$

VAZ055>057-070500-
NORTH AND CENTRAL PIEDMONT

CITY           SKY/WX    TMP DP  RH WIND       PRES   REMARKS
FREDERICKSBRG* CLEAR     74  74 100 CALM      30.04S
STAFFORD*      PTCLDY    71  69  93 CALM      30.08S

$$

NCZ024-NYZ072-PAZ021-071-VAZ022-071-070500-
OTHER REGIONAL OBSERVATIONS

CITY           SKY/WX    TMP DP  RH WIND       PRES   REMARKS
NEW YORK CITY  CLOUDY    75  66  73 CALM      30.12F
PHILADELPHIA   CLOUDY    77  72  84 SE7       30.06F
PITTSBURGH     FAIR      70  67  90 CALM      30.03S
ROANOKE        CLEAR     70  68  93 CALM      30.13R
RICHMOND       CLEAR     74  72  93 SE5       30.05S
RALEIGH        MOCLDY    77  66  68 NW3       30.10R

$$

ANZ530>537-070500-
MARINE OBSERVATIONS

STATION/POSITION TIME  TEMP    WIND        PRES
                       AIR SEA DIR/SP/G
                 (UTC) (F)     (DEG/KT/KT) (MB)
THOMAS PT LIGHT  NOT AVBL
BALT KEY BRIDGE  0300   78     140/  6/  7 1016.7R
COVE POINT       0300   76     210/  9/ 10 1018.0F
LEWISETTA        0300   76 82  180/  4/  5 1017.1F
SOLOMONS ISLAND  0300      81                N/A
PINEY POINT      0300          220/  7/  8   N/A

$$




USA.gov is the U.S. government's official web portal to all federal, state and local government web resources and services.